Home   Weather   Svolvær   Past weeks

Flag for Norway Past Weather in Svolvær, Norway — Yesterday and Last 2 Weeks

Now
42 °F

Quite cool.


Feels Like: 40 °F
Forecast: 37 / 41 °F
Wind: 3 mph from Northeast

Location: Skrova Fyr

Current Time: Apr 29, 2017 at 9:33:09 pm

Latest Report: Apr 29, 2017 at 8:00 pm


Visibility: N/A

Pressure: 30.40 "Hg

Humidity: 52%

Dew Point: 25 °F

Location of SvolværLocation

Past Weather in Svolvær — Graph

°F

Svolvær Temperature Yesterday

Maximum temperature yesterday: 42 °F (at 4:00 pm)
Minimum temperature yesterday: 36 °F (at 2:00 am)
Average temperature yesterday: 39 °F

High & Low Weather Summary for the Past Weeks

 TemperatureHumidityPressure
High44 °F (Apr 29, 5:00 pm)100% (Apr 18, 7:00 pm)30.44 "Hg (Apr 18, 7:00 pm)
Low30 °F (Apr 15, 6:00 am)38% (Apr 15, 5:00 pm)28.82 "Hg (Apr 21, 7:00 am)
Average36 °F66%29.87 "Hg
* Reported Apr 14 7:00 pm — Apr 29 7:00 pm, Svolvær, Weather by CustomWeather, © 2017

Note: Actual official high and low records may vary slightly from our data, if they occured in-between our weather recording intervals... More about our weather records

Advertising

Svolvær Weather History for the Previous 24 Hours

Scroll right to see more
 ConditionsComfort  
Time TempWeatherWind HumidityBarometerVisibility
7:00 pm
Sat, Apr 29
43 °FQuite cool.5 mph52%30.40 "HgN/A
6:00 pm43 °FQuite cool.5 mph48%30.40 "HgN/A
5:00 pm44 °FQuite cool.5 mph40%30.41 "HgN/A
4:00 pm43 °FQuite cool.6 mph48%30.42 "HgN/A
3:00 pm43 °FQuite cool.7 mph42%30.42 "HgN/A
2:00 pm42 °FScattered clouds.6 mph44%30.42 "Hg47 mi
1:00 pm42 °FQuite cool.7 mph45%30.43 "HgN/A
12:00 pm41 °FQuite cool.7 mph49%30.44 "HgN/A
11:00 am41 °FQuite cool.7 mph47%30.44 "HgN/A
10:00 am39 °FChilly.9 mph48%30.43 "HgN/A
9:00 am38 °FChilly.9 mph54%30.43 "HgN/A
8:00 am38 °FSunny.9 mph52%30.42 "Hg47 mi
7:00 am37 °FChilly.9 mph55%30.42 "HgN/A
6:00 am37 °FChilly.8 mph56%30.41 "HgN/A
5:00 am36 °FChilly.8 mph59%30.41 "HgN/A
4:00 am36 °FChilly.8 mph61%30.40 "HgN/A
3:00 am37 °FChilly.8 mph55%30.40 "HgN/A
2:00 am37 °FChilly.7 mph56%30.40 "HgN/A
1:00 am38 °FChilly.7 mph57%30.39 "HgN/A
12:00 am38 °FChilly.6 mph55%30.38 "HgN/A
11:00 pm
Fri, Apr 28
39 °FChilly.5 mph57%30.38 "HgN/A
10:00 pm40 °FChilly.6 mph49%30.37 "HgN/A
9:00 pm40 °FChilly.3 mph46%30.37 "HgN/A
Weather by CustomWeather, © 2017

See weather overviewHow to use our weather pages